This is the latest recevied weather packets stored in our database for station/object W0VI. If no packets are shown the sender has not sent any weather packets the latest 10 day(s).
| Time | Temp. | Humidity | Pressure | Rain* | Wind** | Luminosity | Snow |
|---|---|---|---|---|---|---|---|
| 1778127356 | 3.89° C | 66% | 1014.6 hPa | 0 mm | - | 0 W/m² | - |
| 1778127053 | 3.89° C | 66% | 1014.8 hPa | 0 mm | - | 0 W/m² | - |
| 1778126749 | 3.89° C | 65% | 1014.9 hPa | 0 mm | - | 0 W/m² | - |
| 1778126446 | 3.89° C | 65% | 1014.9 hPa | 0 mm | - | 0 W/m² | - |
| 1778126142 | 3.89° C | 66% | 1014.9 hPa | 0 mm | - | 0 W/m² | - |
| 1778125838 | 3.89° C | 66% | 1015.2 hPa | 0 mm | - | 0 W/m² | - |
| 1778125535 | 3.89° C | 67% | 1014.9 hPa | 0 mm | - | 0 W/m² | - |
| 1778125233 | 3.89° C | 67% | 1015.2 hPa | 0 mm | - | 0 W/m² | - |
| 1778124930 | 3.33° C | 69% | 1015.1 hPa | 0 mm | - | 0 W/m² | - |
| 1778124628 | 3.33° C | 70% | 1015 hPa | 0 mm | - | 0 W/m² | - |
| 1778124324 | 3.89° C | 69% | 1014.9 hPa | 0 mm | - | 0 W/m² | - |
| 1778124021 | 3.89° C | 68% | 1015 hPa | 0 mm | - | 0 W/m² | - |
| 1778123717 | 3.33° C | 66% | 1015.2 hPa | 0 mm | - | 0 W/m² | - |
| 1778123415 | 3.89° C | 63% | 1015 hPa | 0 mm | - | 0 W/m² | - |
| 1778123110 | 3.89° C | 62% | 1015 hPa | 0 mm | - | 0 W/m² | - |
| 1778122808 | 3.89° C | 61% | 1015 hPa | 0 mm | - | 0 W/m² | - |
| 1778122505 | 4.44° C | 60% | 1015 hPa | 0 mm | - | 0 W/m² | - |
| 1778122202 | 4.44° C | 60% | 1015.3 hPa | 0 mm | - | 0 W/m² | - |
| 1778121900 | 4.44° C | 60% | 1015 hPa | 0 mm | - | 0 W/m² | - |
| 1778121596 | 4.44° C | 59% | 1015 hPa | 0 mm | - | 0 W/m² | - |
| 1778121293 | 5° C | 58% | 1015.4 hPa | 0 mm | - | 0 W/m² | - |
| 1778120990 | 5° C | 56% | 1015.4 hPa | 0 mm | - | 0 W/m² | - |
| 1778120687 | 5° C | 56% | 1015.2 hPa | 0 mm | - | 0 W/m² | - |
| 1778120382 | 5° C | 55% | 1015.2 hPa | 0 mm | - | 0 W/m² | - |
| 1778120077 | 5° C | 54% | 1015.2 hPa | 0 mm | - | 0 W/m² | - |
* Rain latest hour (hover to see other rain measurements)
** Current wind speed in m/s (hover to see current wind gust speed)